Regional Weather Roundup
Issued by NWS

Home | Current Version | Previous Version | Graphics & Text | Print | Product List | Glossary On
Versions: 1 2 3 4 5 6 7 8 9 10 11 12 13 14 15 16 17 18 19 20 21 22 23 24 25 26 27 28 29 30 31 32 33 34 35 36 37 38 39 40 41 42 43 44 45 46 47 48 49 50
657
ASUS44 KJAN 212003
RWRMS

MISSISSIPPI HOURLY WEATHER ROUNDUP
NATIONAL WEATHER SERVICE JACKSON MS
300 PM CDT MON JUL 21 2014

NOTE: "FAIR: INDICATES FEW OR NO CLOUDS BELOW 12,000 FEET WITH NO
SIGNIFICANT WEATHER AND/OR OBSTRUCTIONS TO VISIBILITY.

MSZ001>002-007>008-010>013-018>021-025>028-034>036-212100-
NORTHWEST MISSISSIPPI

CITY           SKY/WX    TMP DP  RH WIND       PRES   REMARKS
CLARKSDALE     FAIR      84  68  58 CALM      30.06F
CLEVELAND      MOCLDY    86  72  62 N5        30.04F HX  92
GREENWOOD      SUNNY     87  67  51 NW6       30.03F HX  90
GREENVILLE     MOSUNNY   88  69  53 N3        30.04F HX  92
GRENADA        FAIR      88  64  45 CALM      30.04F
OXFORD         FAIR      84  66  54 NW5       30.07F
TUNICA         PTCLDY    84  70  61 NE3       30.06F
$$

MSZ003>006-009-014>017-022>024-029>033-037>039-212100-
NORTHEAST MISSISSIPPI

CITY           SKY/WX    TMP DP  RH WIND       PRES   REMARKS
BELMONT        FAIR      84  67  57 NE3       30.04F
COLUMBUS AFB   MOSUNNY   85  67  55 NW3       30.02F
CORINTH        MOCLDY    84  64  51 CALM      30.05S
GOLDN TRIANGLE MOSUNNY   90  68  48 N8        30.04F HX  93
STARKVILLE     FAIR      84  66  54 NE3       30.02F
TUPELO         SUNNY     86  65  49 NE6       30.03F
$$

MSZ040-058-212100-
CENTRAL MISSISSIPPI

CITY           SKY/WX    TMP DP  RH WIND       PRES   REMARKS
JACKSON INTL   MOSUNNY   89  67  47 VRB7      30.03F HX  92
JACKSON HAWKNS MOSUNNY   86  64  47 N3        30.04F
MERIDIAN KEY   PTSUNNY   90  65  43 N7        30.00F HX  92
MERIDIAN NAS   MOSUNNY   88  66  48 NE8       30.01F HX  90
RAYMOND        FAIR      86  81  84 CALM      30.04F HX 102
VICKSBURG      SUNNY     88  70  55 VRB5      30.04F HX  93
$$

MSZ059>079-212100-
SOUTH MISSISSIPPI

CITY           SKY/WX    TMP DP  RH WIND       PRES   REMARKS
BROOKHAVEN     FAIR      84  70  61 NW7       30.06F
COLUMBIA       FAIR      88  68  51 N8        30.02F HX  91
HATTIESBURG    PTSUNNY   88  68  51 N7        30.02F HX  91
MCCOMB         MOSUNNY   87  68  52 N6        30.04S HX  90
NATCHEZ        MOSUNNY   84  70  61 N7        30.04F
PINE BELT      MOSUNNY   90  66  45 W5        30.04F HX  92
$$

MSZ080>082-212100-
COASTAL MISSISSIPPI

CITY           SKY/WX    TMP DP  RH WIND       PRES   REMARKS
BAY ST LOUIS   MOSUNNY  N/A N/A N/A N6        30.02F
BILOXI         MOSUNNY   91  69  48 W3        30.00F HX  96
PASCAGOULA     SUNNY     90  69  50 VRB6      30.00F HX  94
GULFPORT       MOSUNNY   92  68  45 NW8       30.00F HX  96
$$



USA.gov is the U.S. government's official web portal to all federal, state and local government web resources and services.